Home > Weather > Lomé > Past weeks

Flag for Togo Past Weather in Lomé, Togo — Yesterday and Last 2 Weeks

Now
77 °F

Broken clouds.


Feels Like: 78 °F
Forecast: 75 / 84 °F
Wind: 3 mph from North

Location: Lome Airport

Current Time: Jul 27, 2016 at 7:56:10 AM

Latest Report: Jul 27, 2016 at 7:30 AM


Visibility: 4 mi

Pressure: 29.95 "Hg

Humidity: 94%

Dew Point: 75 °F

Location of LoméLocation

Past Weather in Lomé — Graph

°F

Lomé Temperature Yesterday

Maximum temperature yesterday: 84 °F (at 11:00 AM)
Minimum temperature yesterday: 75 °F (at 12:00 AM)
Average temperature yesterday: 78 °F

High & Low Weather Summary for the Past Weeks

 TemperatureHumidityPressure
High86 °F (Jul 16, 11:30 AM)100% (Jul 12, 6:00 AM)30.01 "Hg (Jul 12, 6:00 AM)
Low75 °F (Jul 12, 6:00 AM)66% (Jul 12, 1:30 PM)29.83 "Hg (Jul 16, 3:00 PM)
Average78 °F87%29.93 "Hg
* Reported Jul 12 6:00 AM — Jul 27 6:30 AM, Lomé, Weather by CustomWeather, © 2016

Note: Actual official high and low records may vary slightly from our data, if they occured in-between our weather recording intervals... More about our weather records

Advertising

Lomé Weather History for the Previous 24 Hours

Scroll right to see more
 ConditionsComfort  
Time TempWeatherWind HumidityBarometerVisibility
6:30 AM
Wed, Jul 27
77 °FScattered clouds.2 mph94%29.95 "Hg4 mi
6:00 AM77 °FBroken clouds.2 mph94%29.92 "Hg4 mi
5:30 AM75 °FPassing clouds.5 mph100%29.92 "Hg5 mi
5:00 AM75 °FPassing clouds.7 mph100%29.92 "Hg5 mi
4:30 AM75 °FMild.8 mph100%29.89 "Hg5 mi
4:00 AM75 °FPassing clouds.7 mph100%29.89 "Hg5 mi
3:30 AM75 °FPartly cloudy.7 mph100%29.89 "Hg5 mi
3:00 AM75 °FPassing clouds.8 mph100%29.89 "Hg5 mi
2:30 AM75 °FPassing clouds.9 mph100%29.89 "Hg5 mi
2:00 AM75 °FPartly cloudy.9 mph100%29.89 "Hg5 mi
1:30 AM75 °FPartly cloudy.8 mph100%29.92 "Hg5 mi
1:00 AM75 °FPartly cloudy.9 mph100%29.92 "Hg5 mi
12:30 AM75 °FPartly cloudy.9 mph100%29.95 "Hg5 mi
12:00 AM75 °FPartly cloudy.8 mph100%29.95 "HgN/A
11:30 PM
Tue, Jul 26
75 °FPartly cloudy.8 mph100%29.95 "HgN/A
11:00 PM75 °FPartly cloudy.7 mph100%29.98 "HgN/A
10:30 PM75 °FPartly cloudy.5 mph100%29.98 "HgN/A
10:00 PM75 °FPassing clouds.5 mph100%29.98 "HgN/A
9:30 PM75 °FPassing clouds.5 mph94%29.98 "HgN/A
9:00 PM75 °FPartly cloudy.6 mph94%29.98 "HgN/A
8:30 PM75 °FPassing clouds.5 mph94%29.95 "HgN/A
8:00 PM75 °FPassing clouds.7 mph94%29.95 "HgN/A
7:30 PM75 °FPassing clouds.7 mph94%29.92 "HgN/A
7:00 PM75 °FPassing clouds.12 mph94%29.92 "HgN/A
6:30 PM77 °FPassing clouds.12 mph89%29.92 "HgN/A
6:00 PM77 °FScattered clouds.13 mph89%29.89 "HgN/A
5:30 PM79 °FScattered clouds.14 mph84%29.89 "HgN/A
5:00 PM79 °FScattered clouds.15 mph84%29.89 "HgN/A
4:30 PM81 °FPartly sunny.16 mph79%29.89 "HgN/A
4:00 PM81 °FPartly sunny.16 mph79%29.89 "HgN/A
3:30 PM81 °FPartly sunny.15 mph79%29.89 "HgN/A
3:00 PM82 °FPartly sunny.16 mph74%29.89 "HgN/A
2:30 PM82 °FBroken clouds.17 mph79%29.89 "HgN/A
2:00 PM81 °FBroken clouds.15 mph79%29.89 "HgN/A
1:30 PM82 °FBroken clouds.15 mph74%29.92 "HgN/A
1:00 PM82 °FBroken clouds.16 mph74%29.92 "HgN/A
12:30 PM82 °FScattered clouds.15 mph74%29.92 "HgN/A
12:00 PM84 °FScattered clouds.14 mph70%29.92 "HgN/A
11:30 AM84 °FScattered clouds.15 mph66%29.95 "HgN/A
11:00 AM84 °FScattered clouds.13 mph66%29.95 "HgN/A
10:00 AM81 °FScattered clouds.12 mph79%29.98 "HgN/A
9:30 AM81 °FScattered clouds.12 mph79%29.98 "HgN/A
9:00 AM79 °FScattered clouds.12 mph84%29.98 "HgN/A
8:30 AM77 °FScattered clouds.12 mph89%29.98 "Hg5 mi
8:00 AM77 °FScattered clouds.8 mph89%29.95 "Hg4 mi
7:30 AM77 °FScattered clouds.9 mph94%29.95 "Hg4 mi
7:00 AM75 °FScattered clouds.7 mph100%29.95 "Hg4 mi
Weather by CustomWeather, © 2016

See weather overviewHow to use our weather pages